User: anonymous   Login
Location: Unspecified
(0.0000°N, 0.0000°E)
Time: 00:17:32
(UTC+00:00)
Language:

Ayame 2 - Orbit

View from above orbital plane
View from above orbital plane
View from above satellite
View from above satellite

Ground track
Ground track

The orbit data is extracted from the following two-line orbital elements,

1 11715U 80018A   18265.55451866 -.00000083 +00000-0 +00000-0 0  9996
2 11715 007.8167 277.8488 4430553 202.2035 168.1832 01.75495025185458
Epoch (UTC): 22 September 2018 13:18:30
Eccentricity: 0.4430553
inclination: 7.8167°
perigee height: 9791 km
apogee height: 35518 km
right ascension of ascending node: 277.8488°
argument of perigee: 202.2035°
revolutions per day: 1.75495025
mean anomaly at epoch: 168.1832°
orbit number at epoch: 18545

The dashed part of the orbit path shows where the satellite is in the earth's shadow,  

DLR